Regional Weather Roundup
Issued by NWS

Home | Current Version | Previous Version | Text Only | Print | Product List | Glossary Off
Versions: 1 2 3 4 5 6 7 8 9 10 11 12 13 14 15 16 17 18 19 20 21 22 23 24 25 26 27 28 29 30 31 32 33 34 35 36 37 38 39 40 41 42 43 44 45 46 47 48 49 50

000
ASUS43 KOAX 290002
RWRNE
WEATHER ROUNDUP FOR NEBRASKA
NATIONAL WEATHER SERVICE OMAHA NE
700 PM CDT THU MAY 28 2015

NOTES: SATELLITE DATA IS BEING USED TO AUGMENT CLOUD COVER ABOVE
       12000 FEET.
       "FAIR" INDICATES FEW OR NO CLOUDS BELOW 12,000 FEET WITH NO
       SIGNIFICANT WEATHER AND/OR OBSTRUCTIONS TO VISIBILITY.

  * THESE STATIONS DO NOT REPORT WEATHER SUCH AS RAIN...SNOW OR FOG.

NEZ001>004-019>022-054>056-290100-
NEBRASKA PANHANDLE

CITY           SKY/WX    TMP DP  RH WIND       PRES   REMARKS
SCOTTSBLUFF    PTSUNNY   71  54  54 NE10G21   29.91R
6HR MIN TEMP:  68; 6HR MAX TEMP:  76;

ALLIANCE       CLOUDY    67  54  63 NE12      29.92R
6HR MIN TEMP:  66; 6HR MAX TEMP:  76; 6HR PCP: TRACE;

CHADRON        CLOUDY    71  54  54 NW3       29.91R
6HR MIN TEMP:  67; 6HR MAX TEMP:  73; 6HR PCP:  0.02;

KIMBALL          N/A    N/A N/A N/A MISG        N/A
SIDNEY         CLOUDY    55  53  93 S5        29.96S
6HR MIN TEMP:  53; 6HR MAX TEMP:  76; 6HR PCP:  0.15;

$$

NEZ057>060-069>072-079>082-290100-
SOUTHWEST NEBRASKA

CITY           SKY/WX    TMP DP  RH WIND       PRES   REMARKS
NORTH PLATTE   PTSUNNY   72  58  61 S15G22    29.85F
6HR MIN TEMP:  68; 6HR MAX TEMP:  76;

IMPERIAL       TSTM      56  52  86 NW24G41   30.00R
6HR MIN TEMP:  56; 6HR MAX TEMP:  75; 6HR PCP:  0.16;

LEXINGTON      CLOUDY    74  61  64 S15       29.87F
MCCOOK         CLOUDY    72  60  66 SE15      29.88R
6HR MIN TEMP:  72; 6HR MAX TEMP:  78;

$$

NEZ005>010-023>029-035>040-094-290100-
NORTH CENTRAL NEBRASKA

CITY           SKY/WX    TMP DP  RH WIND       PRES   REMARKS
VALENTINE      CLOUDY    70  55  59 S14       29.87R
6HR MIN TEMP:  65; 6HR MAX TEMP:  77; 6HR PCP:  0.01;

AINSWORTH      LGT RAIN  69  56  62 CALM      29.87F
BROKEN BOW     CLOUDY    75  60  59 S10       29.86F
6HR MIN TEMP:  72; 6HR MAX TEMP:  76;

ORD            CLOUDY    74  59  59 S8        29.86F
6HR MIN TEMP:  73; 6HR MAX TEMP:  77;

$$

NEZ041-046>049-061>064-073>077-083>087-290100-
SOUTH CENTRAL NEBRASKA

CITY           SKY/WX    TMP DP  RH WIND       PRES   REMARKS
GRAND ISLAND   CLOUDY    76  59  55 S10       29.87F
6HR MIN TEMP:  74; 6HR MAX TEMP:  79;

AURORA         PTSUNNY   77  57  50 S10       29.86F
HASTINGS       PTSUNNY   75  60  59 S10       29.88F
6HR MIN TEMP:  71; 6HR MAX TEMP:  78;

KEARNEY *      CLOUDY    75  57  53 S17       29.88S
$$

NEZ011>018-030>034-042>045-290100-
NORTHEAST NEBRASKA

CITY           SKY/WX    TMP DP  RH WIND       PRES   REMARKS
NORFOLK        CLOUDY    75  64  68 SE16      29.87F
6HR MIN TEMP:  73; 6HR MAX TEMP:  79;

BLAIR          PTSUNNY   71  63  76 SE10      29.91F
COLUMBUS *     MOSUNNY   75  63  64 SE14G20   29.88F
FREMONT        PTSUNNY   74  64  70 SE13      29.91S
TEKAMAH        PTSUNNY   71  66  84 SE15      29.90F
6HR MIN TEMP:  69; 6HR MAX TEMP:  74; 6HR PCP:  0.10;

$$

NEZ050>053-065>068-078-088>093-290100-
SOUTHEAST NEBRASKA

CITY           SKY/WX    TMP DP  RH WIND       PRES   REMARKS
LINCOLN        PTSUNNY   76  66  71 SE13      29.90S
6HR MIN TEMP:  69; 6HR MAX TEMP:  77; 6HR PCP:  0.02;

OMAHA EPPLEY   CLOUDY    72  63  73 SE17      29.92F
6HR MIN TEMP:  68; 6HR MAX TEMP:  73; 6HR PCP:  0.11;

BEATRICE       PTSUNNY   75  66  72 S12       29.90F
FALLS CITY     CLOUDY    73  63  70 S10       29.93S
6HR MIN TEMP:  67; 6HR MAX TEMP:  75; 6HR PCP:  0.04;

NEBRASKA CITY  CLOUDY    70  63  77 S7        29.94S
PLATTSMOUTH    PTSUNNY   71  63  77 SE14      29.93R
$$

NEZ044-045-051>053-067-290100-
OMAHA AREA

CITY           SKY/WX    TMP DP  RH WIND       PRES   REMARKS
OMAHA EPPLEY   CLOUDY    72  63  73 SE17      29.92F
6HR MIN TEMP:  68; 6HR MAX TEMP:  73; 6HR PCP:  0.11;

BLAIR          PTSUNNY   71  63  76 SE10      29.91F
FREMONT        PTSUNNY   74  64  70 SE13      29.91S
OFFUTT AFB     PTSUNNY   72  64  76 SE16      29.91F
PLATTSMOUTH    PTSUNNY   71  63  77 SE14      29.93R
WAHOO          FAIR      75  65  71 SE16      29.91S
$$


USA.gov is the U.S. government's official web portal to all federal, state and local government web resources and services.